Temperature
17 16 15 15 15 15 15 15 15 15 14 14 13 13 13 12 12 12 12 12 12 11 11 11 11 11 10 10 9 9 9 9 8 8 8 8 8 9 9 9 9 9 9
16 15 14 14 14 14 14 14 13 13 13 13 13 12 12 12 12 11 11 11 11 11 11 11 10 10 9 9 8 8 8 7 7 6 5 5 6 8 7 7 7 7 7
15 14 14 13 13 13 13 13 13 13 13 13 12 12 12 11 11 11 11 11 11 10 10 10 9 9 8 8 7 7 6 6 6 5 4 4 4 3 4 5 5 5 5
15 14 13 13 13 13 13 13 13 12 12 12 12 12 12 11 11 11 10 10 10 10 10 9 9 8 7 7 6 6 5 5 5 5 4 3 3 2 2 2 3 3 3
15 13 12 12 12 12 12 12 12 12 12 12 12 12 11 11 10 10 10 10 9 9 9 8 8 7 6 6 6 5 5 4 4 4 3 3 2 2 1 1 1 1 1
14 13 12 12 12 12 12 12 12 12 12 12 11 11 11 10 10 10 9 9 9 8 8 7 7 6 6 5 5 5 4 4 3 3 2 1 0 0 0 -0 -0 -0 -0
13 12 11 11 12 12 12 12 12 12 11 11 11 11 10 10 9 9 9 8 8 8 7 6 6 5 5 4 4 4 4 3 2 2 1 0 -0 -0 -1 -1 -1 -1 -1
12 11 11 11 11 12 11 11 11 11 11 11 10 10 10 9 9 9 8 8 7 7 6 5 5 4 4 4 4 3 3 2 1 1 0 -1 -1 -1 -2 -2 -2 -2 -2
12 11 11 10 11 11 11 11 11 11 10 10 10 9 9 9 8 8 7 7 6 5 5 4 4 4 3 3 3 2 2 1 0 -1 -1 -2 -2 -2 -2 -2 -2 -3 -3
12 11 10 10 10 10 10 10 10 10 10 9 9 8 8 8 7 7 6 6 5 4 4 3 3 3 3 2 2 1 0 -0 -1 -2 -2 -2 -3 -3 -3 -3 -3 -4 -4
12 11 10 10 10 9 9 9 9 9 9 8 8 8 7 7 6 6 5 4 4 3 3 3 3 2 2 1 1 0 -1 -2 -2 -3 -3 -3 -4 -4 -4 -4 -4 -4 -5
12 11 10 10 9 9 9 9 9 8 8 8 7 7 6 6 5 5 4 3 3 3 2 2 2 2 1 0 -0 -1 -2 -3 -3 -3 -4 -4 -5 -5 -5 -5 -5 -5 -6
12 11 10 9 9 8 8 8 8 8 7 7 6 6 6 5 4 4 3 3 2 2 2 2 1 1 0 -1 -2 -3 -4 -4 -4 -5 -5 -6 -6 -6 -6 -6 -6 -6 -6
12 11 10 9 8 8 8 7 7 7 6 6 6 5 5 4 4 3 2 2 2 1 1 1 0 -0 -1 -2 -3 -4 -4 -5 -5 -5 -6 -6 -7 -6 -6 -6 -6 -7 -7
12 11 9 9 8 8 7 7 6 6 6 5 5 5 4 3 3 2 2 1 1 1 1 0 -1 -2 -3 -3 -4 -5 -5 -6 -6 -6 -7 -7 -7 -7 -7 -7 -7 -7 -7
12 11 9 9 8 7 6 6 6 5 5 5 4 4 3 2 2 1 1 1 1 0 -0 -1 -2 -3 -3 -4 -5 -5 -6 -6 -7 -7 -7 -8 -8 -7 -7 -7 -7 -7 -7
12 10 9 8 7 7 6 5 5 5 5 4 4 3 2 2 1 1 1 0 -0 -1 -1 -2 -3 -3 -4 -5 -5 -6 -6 -7 -7 -8 -8 -8 -8 -8 -8 -8 -8 -8 -8
11 10 9 8 7 6 5 5 4 4 4 3 3 2 1 1 1 0 0 -0 -1 -1 -2 -2 -3 -4 -5 -5 -6 -6 -7 -7 -8 -8 -8 -8 -8 -8 -8 -8 -8 -8 -8
11 9 8 7 6 5 5 4 4 4 3 3 2 1 1 1 0 -0 -0 -1 -1 -2 -2 -3 -4 -5 -5 -6 -6 -7 -7 -7 -8 -8 -9 -9 -9 -9 -8 -8 -8 -8 -9
9 8 7 6 5 4 4 4 4 3 2 2 1 1 0 0 -0 -1 -1 -1 -2 -2 -3 -4 -5 -6 -6 -7 -7 -7 -7 -8 -8 -9 -9 -9 -9 -9 -8 -8 -9 -9 -9
8 7 6 5 4 4 4 3 3 2 2 1 1 0 -0 -0 -1 -1 -1 -2 -3 -3 -4 -5 -5 -6 -7 -7 -8 -8 -8 -8 -9 -9 -9 -9 -9 -9 -9 -9 -9 -10 -9
6 6 5 4 4 3 3 3 2 1 1 1 0 0 -0 -1 -1 -2 -2 -3 -4 -4 -5 -6 -6 -7 -8 -8 -9 -9 -9 -9 -9 -9 -10 -10 -9 -9 -9 -10 -10 -10 -10
5 5 5 4 3 3 2 2 1 1 1 0 0 -0 -1 -1 -2 -2 -3 -4 -4 -5 -6 -6 -7 -7 -8 -9 -9 -9 -9 -9 -9 -10 -10 -10 -10 -10 -10 -11 -11 -11 -11
5 4 4 4 3 2 2 1 1 0 0 0 -0 -1 -1 -2 -2 -3 -4 -5 -5 -6 -7 -7 -8 -8 -9 -9 -9 -9 -9 -10 -10 -10 -10 -10 -10 -11 -11 -11 -12 -12 -12
4 4 3 3 2 2 1 1 0 0 0 -0 -1 -1 -2 -2 -3 -4 -4 -5 -6 -7 -8 -8 -8 -9 -9 -9 -9 -9 -10 -10 -10 -10 -10 -11 -11 -12 -12 -12 -12 -12 -12
4 3 2 2 1 1 1 0 0 -0 -0 -1 -1 -2 -2 -3 -4 -4 -5 -5 -6 -7 -8 -8 -9 -9 -9 -9 -9 -10 -10 -10 -10 -11 -12 -12 -12 -12 -12 -12 -12 -12 -12
Wind_Speed
11 8 7 6 6 6 7 8 9 9 9 8 8 8 8 8 7 7 11 13 13 13 9 6 7 7 6 7 8 6 8 7 7 6 7 8 8 7 8 12 12 11 9
11 8 8 8 8 8 8 9 10 11 10 9 8 8 8 7 7 5 8 12 13 12 10 7 7 7 6 8 7 6 6 6 7 6 6 5 6 5 12 11 8 10 10
13 10 9 9 9 9 9 10 11 12 12 12 10 9 7 6 6 6 6 8 12 12 10 8 6 7 6 6 7 7 7 6 6 6 4 5 5 10 6 7 11 9 9
14 12 11 10 9 9 9 10 11 11 10 9 9 9 8 7 6 5 5 7 10 10 10 8 7 6 6 6 7 7 6 6 6 6 4 5 8 6 7 6 7 11 12
14 13 11 10 10 9 9 9 11 11 11 10 10 10 8 6 5 6 7 7 6 8 9 8 6 6 5 6 6 6 6 5 5 5 6 8 7 7 10 13 9 8 8
15 13 11 11 10 9 9 10 11 11 11 11 10 10 10 9 8 7 6 5 5 6 7 7 6 5 5 5 5 5 7 6 6 6 6 7 6 8 9 15 16 13 8
15 14 12 11 10 10 9 9 11 11 10 11 10 10 10 10 9 6 6 6 5 5 6 6 5 5 5 5 5 6 7 7 8 7 6 6 7 8 9 13 16 17 12
14 13 12 11 10 10 10 10 10 10 10 10 10 9 9 6 6 7 6 6 4 4 5 5 5 5 6 6 6 6 7 7 7 10 9 7 8 8 9 10 14 19 18
15 13 12 11 11 10 10 10 10 10 10 9 9 9 8 7 7 7 6 4 4 4 6 5 6 6 6 7 7 6 8 8 7 8 9 8 8 8 8 7 8 13 21
15 14 13 12 10 9 10 10 10 10 10 9 8 8 7 7 7 6 6 5 5 5 5 6 6 7 7 7 7 7 8 9 8 8 10 10 9 8 7 8 8 8 14
16 14 13 12 11 10 10 10 10 10 9 8 8 8 7 6 6 6 5 5 5 5 5 6 7 7 7 8 7 8 10 9 9 10 12 13 12 10 8 8 8 8 9
14 13 13 12 11 10 10 10 9 9 9 8 8 8 6 6 6 5 4 4 5 5 6 6 7 8 8 8 8 10 10 9 11 13 14 14 14 13 10 9 9 9 10
14 13 13 12 11 10 10 10 10 9 8 8 8 7 6 6 5 4 4 5 5 6 6 6 7 8 8 9 9 9 8 9 12 13 14 15 15 15 11 10 10 10 14
14 13 12 11 11 10 10 10 10 9 9 8 8 7 5 4 4 4 4 5 5 6 6 7 7 8 9 9 9 7 9 10 11 12 14 16 15 15 13 13 11 12 14
15 14 13 11 11 10 10 11 10 9 9 8 7 6 4 3 3 4 4 5 6 7 7 7 8 8 9 9 11 10 11 10 11 13 15 16 20 24 21 18 14 15 15
14 14 13 13 12 11 11 11 10 9 8 8 7 5 2 2 2 4 5 6 7 7 7 8 8 9 11 19 23 18 10 9 12 15 15 16 17 21 28 30 29 26 21
13 13 12 12 11 11 11 11 9 9 8 7 6 4 2 2 3 5 6 7 7 7 8 8 8 9 12 22 23 23 14 10 11 13 14 17 18 23 16 24 28 24 29
13 12 11 12 12 11 12 11 10 9 8 6 5 3 1 2 4 5 6 6 6 7 8 8 9 9 14 22 23 24 13 9 10 12 14 16 16 19 23 20 20 19 18
12 11 12 13 12 13 12 11 9 8 7 5 4 2 1 3 5 6 6 7 7 8 8 9 10 10 12 20 23 23 10 9 11 12 14 18 18 27 32 24 22 22 17
13 14 14 15 13 12 11 10 9 7 6 5 3 1 2 3 5 6 6 6 7 8 9 9 9 10 10 19 23 23 8 10 12 12 14 21 25 31 33 24 21 20 18
15 15 14 13 11 10 10 9 8 7 6 4 1 1 2 4 5 5 6 7 7 8 9 10 9 9 12 18 22 24 13 12 14 15 15 15 30 34 35 30 17 22 25
14 14 13 12 9 9 9 9 8 7 5 3 1 2 3 4 5 6 7 7 8 8 9 9 9 7 9 16 20 25 24 23 17 16 15 18 33 34 32 24 25 31 26
11 12 13 11 8 7 8 9 7 6 4 1 1 3 4 5 5 6 7 7 7 7 7 8 9 8 7 11 23 25 27 28 19 16 26 30 32 29 19 24 29 24 15
11 11 11 11 8 7 7 8 7 5 2 0 2 3 5 6 6 5 5 6 6 7 8 9 10 10 8 8 9 11 15 20 18 16 21 26 25 21 22 21 18 14 15
8 9 9 9 9 8 7 7 6 4 2 2 3 4 5 5 6 6 6 7 6 9 12 8 8 10 11 14 25 21 16 16 18 20 12 10 13 14 14 14 14 14 15
8 9 9 9 9 8 7 6 5 3 2 2 3 4 4 5 6 7 7 11 13 19 21 20 19 14 19 27 28 29 29 30 28 20 13 14 14 15 16 16 17 16 16
Wind_Direction
113 119 132 127 99 77 83 97 105 102 99 100 99 94 87 79 68 63 61 58 53 48 43 33 32 20 20 23 12 5 350 344 340 330 321 299 303 318 358 343 330 324 331
122 125 124 107 95 85 81 82 86 88 90 93 94 97 97 89 82 68 59 60 54 47 46 34 29 20 20 21 8 8 355 342 345 338 330 326 317 354 340 305 310 323 319
135 133 109 90 82 78 80 88 87 91 95 97 101 105 99 95 86 79 70 61 58 47 42 37 28 20 24 17 3 13 1 339 334 351 341 332 309 316 278 332 315 309 327
133 128 116 102 92 85 83 90 96 101 105 108 109 107 103 100 98 100 96 84 69 54 36 35 28 22 25 18 360 5 347 345 334 334 338 308 302 305 305 302 306 316 310
130 125 119 112 101 91 85 84 84 82 81 82 86 93 95 98 89 80 74 82 76 61 35 28 23 25 22 6 354 353 346 341 332 324 314 307 301 293 304 303 297 294 294
126 119 114 109 103 95 89 87 86 81 78 80 80 85 87 82 75 67 59 59 66 56 32 23 16 19 10 350 342 348 335 319 308 303 299 297 300 306 303 302 304 302 296
133 131 130 126 122 114 109 104 100 93 85 82 78 76 78 78 71 67 58 53 47 40 22 15 3 0 349 339 344 337 319 307 302 296 291 291 293 295 296 299 302 302 301
140 141 139 133 130 128 122 113 106 99 93 89 86 80 77 76 70 63 61 57 49 35 16 6 354 349 344 339 335 322 312 310 306 308 303 299 293 291 291 295 304 306 305
147 146 139 135 136 134 124 117 111 106 101 96 91 84 80 77 72 67 58 49 36 22 12 358 348 338 333 331 330 319 311 308 304 300 296 294 289 287 287 290 295 301 304
151 147 143 140 139 130 124 120 115 110 101 94 93 91 80 76 74 68 54 35 24 16 359 349 339 330 328 328 324 315 308 308 306 303 300 298 297 293 290 287 286 286 294
154 149 145 140 132 127 127 121 116 113 109 104 93 86 76 67 70 67 49 25 13 1 349 339 330 324 322 324 320 316 311 309 311 312 310 305 303 300 296 293 290 286 289
149 145 142 137 135 137 133 127 123 115 110 105 100 95 85 68 62 57 38 17 1 345 334 329 324 321 321 318 314 312 312 316 321 315 309 307 308 303 300 295 293 295 296
147 145 143 144 147 145 138 131 123 119 114 108 105 97 83 67 51 38 17 359 342 327 323 322 317 313 311 308 305 302 314 323 314 309 308 307 304 301 299 297 297 297 297
153 151 150 151 150 145 138 130 124 119 112 103 97 89 80 69 41 17 354 336 325 318 312 308 304 302 301 301 298 310 318 307 305 306 304 303 300 299 300 301 293 296 298
160 157 155 154 148 141 134 128 123 118 115 108 103 96 78 62 27 357 335 321 313 309 301 300 300 298 303 304 314 317 311 309 308 305 301 300 303 305 306 305 306 306 303
162 156 154 151 147 141 134 127 121 119 116 113 110 106 78 43 1 324 310 303 299 297 300 301 300 303 313 315 315 316 310 305 307 306 305 304 303 306 310 310 307 306 306
156 155 152 147 141 135 130 126 122 117 113 112 112 106 66 0 323 310 306 301 301 304 307 304 305 306 308 314 314 316 316 304 302 303 307 310 310 313 305 303 306 307 305
147 144 139 131 126 121 119 116 116 116 118 121 121 114 64 325 316 309 307 307 308 308 305 304 304 302 304 313 316 316 314 296 295 300 304 305 306 307 307 307 310 306 302
129 126 123 120 117 117 118 118 118 122 125 122 113 99 10 316 309 307 307 308 308 306 301 299 299 296 303 314 316 315 304 302 302 304 307 308 306 306 311 314 310 308 306
110 114 114 114 115 118 122 125 129 132 127 118 110 69 308 304 301 303 306 305 305 299 300 300 298 299 303 314 320 322 312 312 311 309 308 310 311 311 315 315 313 313 311
109 112 114 116 120 124 125 126 127 123 118 115 129 288 301 303 300 300 297 298 299 300 301 301 302 305 312 322 325 324 324 319 318 316 314 312 313 314 316 319 317 313 317
113 115 116 115 116 120 123 122 120 118 120 138 218 284 300 303 305 300 298 300 302 302 303 307 310 309 318 324 323 323 325 323 319 315 313 312 315 318 322 324 319 321 324
116 117 120 118 114 115 121 123 122 123 130 154 288 307 311 303 300 300 301 303 300 300 307 312 313 314 313 318 320 320 321 321 320 312 312 315 319 323 325 320 322 325 321
122 126 126 125 120 111 103 115 122 125 125 36 328 318 310 305 305 300 296 297 300 303 305 307 308 308 306 304 306 310 317 321 319 312 314 320 321 323 322 322 321 319 316
126 130 133 133 133 128 119 119 123 118 86 2 329 315 309 309 307 300 294 301 289 299 310 304 303 309 312 314 321 325 324 323 319 324 323 322 323 324 323 321 321 321 321
129 129 129 130 133 133 132 129 122 109 71 343 323 319 318 314 308 306 307 308 311 315 317 318 317 316 316 320 325 327 326 326 328 331 326 323 323 322 323 323 322 322 323
Height
1461 1464 1466 1467 1467 1468 1469 1470 1471 1474 1476 1478 1480 1483 1485 1487 1489 1491 1492 1493 1493 1493 1492 1491 1490 1488 1486 1483 1481 1478 1475 1472 1468 1464 1458 1456 1455 1453 1451 1450 1448 1445 1442
1459 1463 1466 1467 1467 1468 1469 1471 1472 1474 1476 1478 1480 1483 1485 1488 1490 1491 1492 1492 1492 1492 1490 1489 1488 1486 1483 1481 1478 1475 1472 1470 1467 1463 1457 1452 1449 1448 1447 1444 1442 1439 1437
1456 1462 1465 1466 1467 1468 1469 1471 1472 1474 1477 1479 1481 1484 1486 1488 1490 1491 1492 1492 1491 1490 1489 1487 1485 1483 1480 1478 1475 1473 1470 1467 1466 1464 1461 1456 1449 1442 1438 1439 1436 1433 1430
1454 1460 1463 1465 1466 1468 1470 1472 1474 1476 1479 1481 1483 1485 1486 1488 1490 1491 1491 1491 1490 1488 1487 1485 1482 1480 1478 1475 1473 1471 1468 1466 1463 1461 1460 1458 1452 1444 1433 1431 1429 1427 1423
1453 1458 1462 1464 1466 1469 1471 1473 1475 1477 1480 1482 1484 1486 1487 1488 1490 1490 1490 1489 1488 1486 1484 1482 1480 1478 1475 1473 1471 1468 1466 1463 1460 1458 1454 1451 1448 1443 1436 1424 1419 1417 1416
1452 1457 1460 1463 1466 1469 1472 1474 1476 1478 1481 1483 1485 1486 1487 1488 1489 1489 1489 1488 1486 1484 1482 1480 1477 1475 1473 1470 1468 1465 1463 1460 1457 1454 1450 1447 1443 1438 1433 1423 1413 1408 1406
1450 1455 1459 1463 1466 1469 1472 1475 1477 1479 1482 1484 1485 1486 1487 1487 1488 1488 1487 1486 1484 1482 1480 1477 1475 1473 1470 1468 1465 1463 1459 1456 1453 1449 1446 1442 1439 1435 1430 1422 1411 1402 1396
1449 1454 1458 1462 1466 1469 1473 1475 1477 1479 1481 1483 1484 1485 1486 1487 1487 1486 1485 1484 1482 1480 1478 1475 1473 1471 1468 1465 1462 1459 1455 1452 1448 1445 1441 1437 1433 1429 1425 1419 1411 1397 1387
1448 1453 1458 1462 1465 1469 1472 1475 1477 1479 1481 1482 1483 1484 1485 1485 1485 1484 1483 1482 1480 1478 1475 1473 1471 1468 1465 1462 1458 1455 1451 1447 1443 1439 1435 1431 1426 1423 1419 1414 1410 1402 1386
1446 1452 1456 1461 1465 1468 1471 1474 1476 1478 1479 1481 1482 1483 1483 1483 1483 1482 1481 1479 1477 1475 1473 1470 1468 1465 1462 1458 1454 1450 1446 1442 1438 1433 1429 1425 1420 1416 1412 1407 1403 1398 1390
1444 1449 1455 1459 1463 1467 1470 1472 1474 1476 1478 1479 1480 1481 1482 1482 1481 1480 1478 1476 1474 1472 1470 1467 1464 1461 1458 1454 1449 1445 1440 1436 1432 1428 1423 1418 1413 1408 1404 1399 1395 1390 1385
1442 1448 1453 1457 1461 1465 1468 1470 1472 1474 1476 1477 1479 1479 1480 1479 1478 1477 1476 1474 1472 1469 1467 1464 1461 1457 1453 1449 1444 1439 1435 1431 1426 1421 1416 1411 1406 1401 1397 1392 1387 1382 1377
1441 1446 1450 1454 1459 1462 1466 1468 1470 1472 1474 1475 1477 1477 1477 1477 1476 1474 1473 1471 1469 1466 1464 1460 1457 1453 1448 1444 1439 1435 1430 1426 1421 1415 1410 1405 1400 1394 1390 1385 1379 1374 1368
1438 1443 1447 1452 1456 1460 1463 1465 1468 1470 1472 1473 1474 1475 1475 1474 1473 1472 1470 1468 1466 1463 1460 1456 1452 1448 1443 1439 1435 1430 1425 1420 1414 1409 1404 1399 1395 1389 1384 1378 1372 1367 1360
1435 1440 1444 1449 1454 1458 1461 1463 1465 1468 1470 1471 1472 1472 1472 1471 1470 1469 1467 1465 1462 1459 1456 1452 1448 1444 1439 1435 1431 1425 1419 1414 1408 1402 1398 1393 1389 1384 1379 1373 1367 1361 1354
1432 1437 1442 1447 1451 1454 1457 1460 1463 1465 1467 1469 1470 1470 1469 1469 1467 1466 1464 1461 1458 1455 1451 1447 1443 1439 1435 1430 1426 1421 1414 1408 1402 1396 1391 1387 1382 1377 1372 1367 1361 1355 1348
1429 1434 1439 1444 1448 1452 1455 1457 1461 1464 1466 1467 1467 1467 1467 1466 1464 1463 1460 1458 1454 1451 1447 1443 1438 1434 1430 1425 1420 1416 1410 1404 1398 1392 1386 1380 1375 1370 1363 1357 1352 1346 1341
1427 1433 1438 1442 1446 1450 1453 1456 1460 1462 1464 1464 1465 1465 1464 1463 1462 1460 1457 1454 1451 1447 1442 1438 1433 1429 1424 1420 1416 1410 1405 1398 1392 1387 1381 1375 1368 1362 1357 1349 1342 1336 1331
1425 1431 1436 1440 1444 1448 1451 1455 1458 1460 1462 1462 1462 1462 1462 1461 1459 1457 1454 1450 1446 1442 1438 1433 1428 1423 1419 1415 1410 1406 1399 1392 1386 1381 1376 1370 1363 1356 1351 1343 1334 1326 1320
1425 1430 1434 1438 1443 1447 1451 1454 1457 1458 1460 1460 1460 1460 1459 1458 1456 1453 1450 1447 1442 1438 1433 1429 1424 1420 1415 1410 1406 1402 1395 1387 1380 1374 1368 1363 1357 1350 1344 1336 1327 1319 1311
1425 1430 1434 1438 1443 1447 1451 1453 1455 1457 1458 1458 1458 1458 1457 1455 1453 1450 1447 1443 1438 1434 1429 1424 1419 1415 1410 1405 1401 1397 1391 1384 1376 1369 1361 1355 1350 1343 1337 1330 1322 1314 1306
1427 1431 1434 1439 1443 1447 1450 1452 1454 1455 1456 1456 1456 1455 1454 1452 1450 1446 1443 1439 1434 1429 1424 1419 1414 1410 1406 1401 1396 1391 1387 1380 1373 1364 1356 1349 1343 1337 1330 1323 1316 1309 1301
1428 1432 1435 1439 1443 1447 1449 1450 1452 1453 1453 1454 1453 1453 1451 1449 1446 1443 1439 1434 1430 1425 1420 1415 1409 1404 1400 1395 1391 1386 1380 1374 1367 1359 1352 1344 1337 1330 1323 1316 1310 1303 1295
1429 1433 1437 1440 1443 1446 1447 1449 1450 1451 1451 1451 1451 1450 1448 1446 1443 1439 1435 1430 1426 1421 1416 1411 1405 1400 1395 1390 1385 1379 1373 1367 1360 1352 1345 1339 1331 1325 1318 1311 1304 1297 1291
1430 1434 1437 1439 1442 1444 1446 1447 1448 1449 1449 1449 1448 1447 1445 1442 1438 1435 1431 1427 1423 1419 1414 1409 1403 1397 1391 1387 1383 1377 1369 1362 1355 1347 1339 1332 1326 1319 1312 1305 1299 1292 1285
1430 1433 1436 1438 1440 1442 1444 1445 1446 1447 1447 1447 1445 1444 1441 1438 1434 1429 1425 1422 1419 1415 1411 1406 1402 1395 1391 1384 1378 1372 1365 1357 1351 1343 1336 1329 1323 1316 1309 1302 1294 1288 1281